Location: Unspecified
(0.0000°N, 0.0000°E)
Time: 19:25:32
(UTC+00:00)

Tiangong 2 - Pass Details

Date: 15 January 2017
Orbit: 380 x 388 km, 42.8° (Epoch: 21 May)

Event Time Altitude Azimuth Distance (km) Brightness Sun altitude
Exits shadow 05:04:05 34° 266° (W) 646 1.7 -15.2°
Maximum altitude 05:04:59 46° 315° (NW) 515 1.3 -15.0°
Drops below altitude 10° 05:08:00 10° 30° (NNE) 1,381 4.0 -14.3°
Sets 05:10:06 0° 36° (NE) 2,230 5.1 -13.8°
